Torna al catalogo

STARLINK-34427

AttivoComunicazioniVLEO
NORAD 64498·PAYLOAD·🇺🇸 United States

Lanciato Jun 23, 2025 da Cape Canaveral Space Force Station

Loading…

Prossimi Passaggi (prossime 24 ore)

TLE

AggiornatoSource: CelesTrak SupGP

Epoca: Sep 15, 2026, 03:03 UTC

1 64498C 25133AC  26258.12756944  .00045830  00000+0  13542-2 0  2580
2 64498  53.1575 314.5937 0001144  94.1210 291.5761 15.34365327    19

Traccia STARLINK-34427 in tempo reale con AllMySat

Download on the App Store